Location: Mt. Bigelow
(32.4165°N, 110.7345°W)
Time: 06:24:51
(UTC-07:00)

N. Korean satellite - Visible Passes

Search period start: 25 September 2017 00:00
Search period end: 05 October 2017 00:00
Orbit: 461 x 516 km, 97.2° (Epoch: 24 September)

Date Brightness Start Highest point End Pass type
(mag) Time Alt. Az. Time Alt. Az. Time Alt. Az.
25 Sep 8.7 19:05:33 10° SSW 19:08:54 31° W 19:12:14 10° NNW visible
26 Sep 7.0 18:41:57 10° S 18:45:39 70° W 18:49:21 10° NNW visible
28 Sep 9.9 19:30:38 10° SW 19:32:50 15° W 19:35:01 10° WNW visible
29 Sep 8.8 19:06:13 10° SSW 19:09:31 30° W 19:12:48 10° NW visible
30 Sep 7.1 18:42:34 10° S 18:46:16 67° W 18:49:55 10° NNW visible
02 Oct 9.9 19:31:20 10° SW 19:33:24 14° W 19:35:28 10° WNW visible
03 Oct 8.8 19:06:49 10° SSW 19:10:04 29° W 19:13:17 10° NW visible
04 Oct 7.1 18:43:09 10° S 18:46:49 65° W 18:50:25 10° NNW visible
